Tracking 32140 objects as of 13-Nov-2025
HD Live streaming from Space Station
objects crossing your sky now

SLOSHSAT

Track SLOSHSAT now!
SLOSHSAT is classified as:


NORAD ID: 28544
Int'l Code: 2005-005C
Perigee: 293.0 km
Apogee: 30,559.6 km
Inclination: 7.0 °
Period: 533.8 minutes
Semi major axis: 21797 km
RCS: 0.5011 m2 (medium)
Launch date: February 12, 2005
Source: European Space Agency (ESA)
Launch site: FRENCH GUIANA (FRGUI)
Your satellite tracking list
Your tracking list is empty




NASA's NSSDC Master Catalog

Two Line Element Set (TLE):
1 28544U 05005C   25317.33749718  .00002942  00000-0  13221-2 0  9991
2 28544   6.9653 101.6348 6942726  67.9316 349.1790  2.69773267185348
Source of the keplerian elements: AFSPC